Regional Weather Roundup
Issued by NWS Sioux Falls, SD

Home | Current Version | Previous Version | Graphics & Text | Print | Product List | Glossary On
Versions: 1 2 3 4 5 6 7 8 9 10 11 12 13 14 15 16 17 18 19 20 21 22 23 24 25 26 27 28 29 30 31 32 33 34 35 36 37 38 39 40 41 42 43 44 45 46 47 48 49 50
000
ASUS43 KFSD 280710
RWRFSD

WEATHER ROUNDUP FOR SE SOUTH DAKOTA/SW MINNESOTA/NW IOWA
NATIONAL WEATHER SERVICE SIOUX FALLS SD
100 AM CST FRI NOV 28 2014

NOTE: "FAIR" INDICATES FEW OR NO CLOUDS BELOW 12,000 FEET WITH NO
SIGNIFICANT WEATHER AND OR OBSTRUCTIONS TO VISIBILITY.


SDZ038>040-050-052>070-280800-
SOUTHEAST SOUTH DAKOTA

CITY           SKY/WX    TMP DP  RH WIND       PRES   REMARKS
CHAMBERLAIN    CLEAR     24  19  78 E5        29.84F WCI  18
HURON          PTCLDY    19  13  77 SE10      29.89F WCI   7
MADISON        FAIR      16  14  93 S17       29.92F WCI   0
MITCHELL       CLEAR     21  15  78 SE13      29.91F WCI   9
SIOUX FALLS    MOCLDY    17  11  77 S13       29.96F WCI   4
WINNER         FAIR      41  27  57 SW8       29.83F
YANKTON        PTCLDY    21  16  79 SE8       29.97F WCI  12
$$

MNZ071-072-080-081-089-090-097-098-280800-
SOUTHWEST MINNESOTA

CITY           SKY/WX    TMP DP  RH WIND       PRES   REMARKS
FAIRMONT       CLOUDY    10   1  67 SE18      30.10F WCI  -8
JACKSON        MOCLDY    12   5  73 SE13      30.05F WCI  -3
LUVERNE        MOCLDY    18  12  79 S15       29.99F WCI   3
MARSHALL       CLOUDY    12   3  67 SE14      30.03F WCI  -3
MONTEVIDEO     CLOUDY     7   1  78 S18       30.07F WCI -12
PIPESTONE      CLOUDY    16  10  79 S16       29.95F WCI   0
REDWOOD FALLS  CLOUDY     8   1  73 SE15G23   30.10F WCI  -9
TRACY          CLOUDY    13   7  76 SE13      30.02F WCI  -1
WINDOM         MOCLDY    10   3  72 SE14      30.03F WCI  -5
WORTHINGTON    CLOUDY    12   7  79 S14G21    30.00F WCI  -3
$$

IAZ001>003-012>014-020>022-031-032-NEZ013-014-SDZ071-280800-
NORTHWEST IOWA

CITY           SKY/WX    TMP DP  RH WIND       PRES   REMARKS
CHEROKEE       PTCLDY    16  12  86 SE9       30.05F WCI   4
DENISON        CLOUDY    23  19  86 S16G23    30.05F WCI  10
ESTHERVILLE    CLOUDY    10   4  76 SE22      30.06F WCI -10
LE MARS        MOCLDY    19  16  86 S9        30.01F WCI   9
ORANGE CITY    PTCLDY    19  16  86 SE8       29.99F WCI   9
SHELDON        CLOUDY    16  10  79 SE16G22   30.00F WCI   0
SIOUX CITY     PTCLDY    23  16  74 SE12      30.02F WCI  12
SPENCER        PTCLDY    13   7  77 SE15      30.06F WCI  -3
STORM LAKE     MOCLDY    12   9  85 SE17      30.04F WCI  -5
$$

ABBREVIATIONS USED IN REMARKS
   TC - TEMPERATURE IN CELSIUS
  WCI - WIND CHILL INDEX
   HX - HEAT INDEX
  VSB - VISIBILITY




USA.gov is the U.S. government's official web portal to all federal, state and local government web resources and services.